Location: Home
(42.5358°N, 72.7383°W)
Time: 19:16:14
(UTC-05:00)

A-11 Canister half - Pass Details

Date: 01 December 2021
Orbit: 1524 x 1684 km, 47.3° (Epoch: 23 January)

Event Time Altitude Azimuth Distance (km) Brightness Sun altitude
Rises 07:16:56 0° 294° (WNW) 4,907 11.0 1.6°
Reaches altitude 10° 07:20:07 10° 294° (WNW) 3,902 10.5 2.1°
Maximum altitude 07:30:06 83° 208° (SSW) 1,628 9.3 3.7°
Drops below altitude 10° 07:39:43 10° 122° (ESE) 3,765 14.0 5.1°
Sets 07:42:44 0° 122° (ESE) 4,728 14.3 5.5°
